AAR3694 RKSI-RJFF

Flight info

Callsign AAR3694
Flight time N/A
Altitude 35000
Route OSPOT2E/33L OSPOT Y782 TGU Y781 ANKUS/N0449F370 Y781 BESNA Y209 IKE
Aircraft A321/M-SDE3FGHIRWY/LB1

Departure

Time N/A
Airport Incheon International Airport (RKSI)

Arrival

Time 2026-05-07 14:29
Airport Fukuoka Airport (RJFF)
Time Latitude Longitude Altitude Speed Heading
2026-05-07 14:28 33.59494 130.44681 26 ft 7 kts 330°
2026-05-07 14:29 33.59531 130.44655 27 ft 6 kts 330°
2026-05-07 14:29 33.59562 130.44634 26 ft 6 kts 330°
2026-05-07 14:29 33.59569 130.44629 26 ft 0 kts 330°
2026-05-07 14:29 33.59574 130.44626 26 ft 2 kts 330°
2026-05-07 14:30 33.59594 130.44613 29 ft 5 kts 330°
2026-05-07 14:30 33.59629 130.44589 29 ft 7 kts 330°
2026-05-07 14:30 33.59676 130.44557 26 ft 8 kts 330°
2026-05-07 14:30 33.59728 130.44522 27 ft 9 kts 330°
2026-05-07 14:31 33.59786 130.44483 27 ft 10 kts 330°
2026-05-07 14:31 33.59826 130.44455 28 ft 4 kts 330°
2026-05-07 14:31 33.59847 130.44441 24 ft 4 kts 331°
2026-05-07 14:31 33.59884 130.44438 24 ft 5 kts 24°
2026-05-07 14:32 33.59904 130.44460 24 ft 4 kts 45°
2026-05-07 14:32 33.59935 130.44475 24 ft 6 kts 14°
2026-05-07 14:32 33.59967 130.44479 24 ft 5 kts 352°
2026-05-07 14:32 33.59986 130.44484 24 ft 3 kts 22°
2026-05-07 14:33 33.60000 130.44503 24 ft 3 kts 56°
2026-05-07 14:33 33.60008 130.44518 24 ft 1 kts 59°
2026-05-07 14:33 33.60009 130.44519 24 ft 0 kts 59°
2026-05-07 14:33 33.60010 130.44522 24 ft 0 kts 59°
2026-05-07 14:34 33.60013 130.44528 24 ft 1 kts 59°
2026-05-07 14:34 33.60013 130.44529 24 ft 0 kts 59°